RH
54 42 38 39 38 40 43 49 54 54 53 52 52 59 56 45 54 70 76 77 69 54 52 56 51 53 67 78 81 75 64 64 74 76 72 73 77 79 79 80 83 84 84 82 80 80 80 80 78 78 77 70 67 73 75 76 79 80 78 80 83 85 84 74 65 69 67 59 64 69 68 72 75 76 77 75 76 76 72 65 59 57 57 51 54
54 37 34 35 33 33 34 36 44 49 53 56 57 59 49 36 47 71 80 78 71 60 57 59 53 48 54 62 65 56 42 39 49 56 61 66 72 78 82 83 84 83 82 83 82 79 79 78 76 78 77 74 74 73 71 73 77 78 78 82 82 81 88 84 67 66 70 59 59 65 63 65 70 70 72 74 74 73 75 74 71 72 73 70 69
60 39 30 31 28 30 32 31 39 50 52 52 52 48 42 36 47 72 85 80 70 61 57 56 50 45 48 54 56 50 40 34 36 45 55 62 63 63 70 80 83 83 81 81 80 78 77 76 75 75 75 75 77 75 75 76 76 76 76 79 79 75 82 87 70 64 71 66 61 62 58 60 65 65 69 74 74 73 74 77 76 70 66 70 77
68 49 27 25 29 32 35 35 39 49 53 54 51 39 35 40 50 67 80 78 67 57 54 54 47 35 32 37 40 39 36 35 38 43 47 48 45 42 55 74 81 81 78 72 69 72 74 75 75 72 69 69 72 76 80 79 77 78 78 79 82 78 79 85 78 70 72 70 67 67 62 60 63 65 68 72 72 75 77 74 71 65 59 65 76
68 63 44 39 43 46 52 54 53 56 60 59 50 35 29 37 47 57 65 67 65 54 42 37 35 32 30 32 34 34 33 34 37 41 44 43 38 38 57 77 82 83 76 58 50 58 66 71 72 68 64 65 68 72 78 79 78 79 77 75 78 79 78 80 80 77 72 67 68 72 66 61 64 66 65 67 70 75 77 73 69 71 73 73 74
63 70 66 58 60 72 85 84 76 76 75 61 41 29 27 29 34 43 48 51 54 49 36 24 27 40 44 41 41 38 33 33 36 39 43 45 38 36 55 78 84 82 72 55 51 60 67 71 72 68 65 64 66 70 72 74 79 84 83 80 80 81 84 86 84 80 80 81 83 84 77 70 70 68 63 65 70 71 72 71 71 73 77 77 70
68 67 62 60 66 75 77 70 63 67 77 71 47 27 25 26 24 26 31 32 32 34 34 28 27 38 42 39 41 42 37 36 41 43 43 45 43 39 50 72 82 79 74 68 66 70 73 73 69 67 66 66 70 76 77 77 80 81 78 79 84 83 80 85 89 88 90 92 89 85 79 73 72 71 67 67 73 75 75 76 73 70 72 78 76
67 58 56 67 75 69 62 66 66 62 76 85 59 29 24 26 23 22 25 27 26 27 31 31 29 32 36 35 37 44 43 38 42 45 41 41 46 45 48 61 72 77 80 78 73 70 72 71 66 65 68 71 75 79 80 79 77 75 70 71 79 78 71 75 86 90 87 81 79 81 79 75 75 73 69 70 75 76 74 73 72 70 70 74 76
60 62 66 74 81 83 83 88 85 80 93 98 66 33 27 26 24 25 26 25 27 29 32 36 34 31 33 35 37 45 48 40 40 45 41 41 50 52 48 54 69 79 80 80 81 78 75 74 69 65 65 69 72 72 72 72 70 69 68 69 71 71 68 70 81 89 85 77 77 79 78 80 81 75 67 66 68 68 68 69 69 67 67 71 73
69 79 83 76 77 90 93 88 81 81 93 92 65 41 36 31 25 27 27 25 26 31 36 41 40 32 33 42 48 51 48 40 41 48 44 44 54 59 54 54 65 75 77 79 80 74 73 77 74 69 70 74 75 71 70 73 71 66 64 65 66 65 63 64 72 81 83 79 78 79 78 79 77 74 70 67 66 68 67 65 64 62 62 68 73
80 88 92 84 80 86 85 80 76 75 80 83 69 52 43 36 29 28 28 27 28 29 31 38 43 37 35 47 58 57 49 41 42 46 43 44 57 67 64 59 60 66 70 73 70 65 70 74 71 69 70 72 74 72 71 73 71 67 64 64 63 60 58 57 61 69 76 75 72 74 75 73 70 74 75 72 72 72 66 60 63 68 68 69 73
86 89 92 90 88 89 86 82 81 81 84 86 77 61 50 41 35 32 31 31 33 30 27 35 45 39 33 47 65 62 50 44 45 47 45 49 62 73 73 70 70 68 65 64 66 69 74 71 66 67 66 64 68 73 76 76 70 65 64 66 65 61 59 58 57 62 72 74 68 65 67 69 72 73 71 69 71 69 60 55 59 70 76 76 74
88 89 92 94 92 90 88 88 91 92 90 88 82 73 62 51 42 38 36 37 36 28 23 34 47 44 35 46 65 62 50 50 55 56 58 63 71 78 80 78 77 72 64 63 69 75 77 74 72 72 70 72 78 80 78 73 70 71 71 68 66 66 65 63 59 60 65 67 63 61 62 68 69 65 61 64 65 61 58 60 64 74 83 82 78
89 91 94 94 89 89 91 91 94 94 90 89 87 82 74 63 53 45 40 40 36 28 27 34 45 50 45 50 64 60 48 54 65 68 75 80 75 73 74 74 72 70 67 68 73 77 78 78 77 75 75 81 86 85 78 71 72 80 81 75 73 76 75 71 70 70 67 66 69 73 79 84 78 63 55 55 53 52 61 71 76 81 84 82 81
87 87 82 80 79 86 93 94 94 94 91 90 88 84 79 71 63 56 48 42 36 32 34 35 41 57 63 60 61 56 48 58 73 77 82 83 68 57 61 66 68 70 72 73 74 77 77 75 74 73 75 79 80 79 78 74 71 75 79 78 77 76 78 80 80 78 74 74 79 84 88 88 74 53 43 43 44 53 69 81 85 88 88 85 86
70 66 61 66 75 86 94 95 97 96 92 91 89 83 76 71 70 67 60 54 47 42 40 36 40 62 76 68 62 59 54 64 81 84 78 70 57 47 51 62 70 74 77 77 76 76 74 70 70 69 72 77 77 75 75 73 73 75 79 80 76 71 75 81 81 75 71 70 73 76 74 64 50 39 37 44 55 68 81 87 89 92 92 91 91
46 49 53 60 71 85 94 97 98 97 94 93 88 79 73 70 70 69 66 67 65 56 48 41 46 68 82 75 67 62 56 61 76 79 65 53 45 40 44 59 72 79 81 77 73 72 69 67 68 71 76 81 79 76 75 73 76 81 81 79 76 73 73 79 81 79 77 76 74 70 62 50 42 41 45 58 74 84 89 91 92 91 89 89 90
40 51 55 55 63 81 94 97 97 97 95 92 84 76 72 68 65 63 66 71 71 65 61 60 69 84 88 81 72 67 67 71 72 63 48 39 38 40 47 59 70 81 85 75 65 61 58 59 64 71 80 83 77 73 73 73 78 84 85 84 81 78 77 81 86 88 89 89 82 71 65 62 58 56 59 71 87 92 90 92 95 95 90 85 83
40 45 45 50 64 80 90 96 98 96 94 90 82 74 68 66 66 68 72 76 76 75 74 79 88 90 86 84 77 68 73 79 68 50 41 38 38 44 54 61 65 73 78 72 65 60 55 57 66 72 76 74 69 68 71 76 83 86 87 89 89 86 84 83 84 82 75 71 72 78 86 88 83 79 77 81 89 92 88 86 89 92 89 82 78
36 36 38 50 67 78 86 93 96 96 94 89 81 73 68 67 68 70 75 81 84 82 77 79 88 86 79 81 77 66 69 74 60 46 44 45 46 51 58 59 56 58 63 68 72 70 63 64 69 71 68 64 64 70 76 82 85 82 83 93 94 84 73 64 59 55 49 49 64 84 97 98 93 88 83 78 81 83 81 80 83 85 83 80 78
34 34 37 49 64 74 84 93 96 97 96 91 81 73 67 63 58 55 64 76 84 84 78 73 76 76 72 75 78 73 71 69 56 48 51 55 55 56 54 52 53 60 67 72 74 73 72 73 68 61 61 63 67 75 80 82 83 80 82 86 78 63 54 48 45 51 62 75 88 97 98 94 89 85 78 74 74 73 73 75 76 75 74 75 76
33 34 43 61 75 81 87 95 97 96 97 95 84 69 60 56 51 50 61 72 77 81 81 74 70 72 72 75 79 74 64 55 48 48 55 59 57 54 52 54 62 70 72 74 77 76 75 74 64 56 60 66 69 75 79 79 81 80 75 67 57 50 47 46 53 72 89 96 99 99 95 89 84 80 77 76 75 72 72 71 68 67 65 61 59
33 35 49 72 91 94 90 92 94 92 92 94 85 66 55 53 51 50 60 72 78 82 83 78 75 76 75 74 72 63 51 45 47 51 57 59 58 58 60 63 69 74 79 86 90 82 69 62 57 55 60 65 67 73 78 80 80 73 60 51 49 48 47 53 72 93 101 100 99 98 93 86 81 78 76 75 74 71 65 60 56 54 49 41 38
36 45 59 75 90 96 91 87 89 87 87 88 81 65 55 53 51 51 60 74 83 83 80 75 73 73 71 68 63 53 45 45 48 51 55 59 65 69 70 70 72 76 79 80 77 68 59 53 52 55 60 64 69 75 78 78 71 60 52 49 47 46 54 74 92 97 95 97 97 92 87 82 78 76 75 72 65 56 47 46 45 40 37 41 41
43 57 71 74 75 80 83 84 87 88 88 86 77 63 55 54 53 53 63 76 80 75 72 72 70 67 66 63 55 47 47 49 49 51 57 65 71 72 70 69 71 68 61 55 52 51 51 51 54 60 65 69 73 75 74 70 60 51 48 47 46 54 72 89 95 92 91 92 88 82 79 78 75 74 67 54 42 39 44 52 50 40 46 62 58
44 56 67 66 63 68 79 86 92 94 90 82 71 61 59 64 60 53 61 74 76 70 69 70 69 67 67 64 55 45 46 52 55 59 66 69 67 65 66 67 63 54 47 46 48 50 52 56 63 68 69 72 73 71 66 59 51 47 48 46 49 66 81 82 79 80 80 78 77 76 75 72 67 62 52 41 40 49 62 69 61 53 66 82 75
51 63 76 81 80 82 89 94 96 96 90 80 75 72 72 75 71 63 67 76 77 75 75 74 70 67 66 70 67 56 49 52 57 63 68 68 63 63 65 62 53 47 50 52 52 53 58 63 67 68 67 70 72 68 60 52 47 50 55 58 64 72 72 65 64 63 60 62 70 72 69 65 61 56 52 52 57 63 69 71 68 70 79 86 85
74 85 93 96 94 94 97 98 95 94 90 83 82 83 82 81 80 78 77 78 79 80 79 75 72 71 71 73 70 59 53 55 59 66 73 75 69 64 60 54 47 50 62 67 65 65 65 63 67 73 74 75 76 74 70 69 70 71 70 69 71 69 64 61 62 64 66 69 70 66 64 64 61 57 56 57 59 62 65 68 74 81 84 83 87
93 98 97 96 97 99 100 98 93 92 89 84 81 82 80 78 79 79 75 71 74 78 77 75 72 69 68 67 59 53 58 65 68 69 69 68 65 59 55 55 55 55 61 65 70 79 82 77 77 82 81 76 73 69 68 72 78 80 79 73 67 67 68 67 65 70 76 71 61 60 65 65 60 56 56 55 57 60 63 68 78 85 83 83 89
100 99 98 99 102 102 98 93 92 91 88 83 80 79 76 73 73 73 68 65 68 71 71 73 69 59 58 62 58 55 62 67 65 61 58 58 59 56 53 55 58 58 58 60 66 78 88 87 81 78 74 70 66 65 66 67 68 73 75 71 68 70 71 67 66 68 64 55 52 60 64 60 56 56 57 55 55 57 63 73 81 81 79 84 93
92 91 92 94 97 97 92 89 92 93 89 83 79 76 73 70 69 68 64 61 61 59 57 59 56 49 52 59 57 54 58 60 58 58 59 58 58 56 54 55 57 59 61 63 69 79 85 83 75 69 68 66 63 65 67 66 66 69 68 66 66 67 64 64 66 60 47 44 54 60 57 55 57 57 55 54 53 54 61 72 79 79 82 89 95
85 82 84 85 91 95 90 86 90 93 87 81 76 71 67 63 60 58 57 56 53 47 43 44 43 42 47 53 54 55 58 58 58 60 61 60 57 57 59 59 59 61 62 64 72 81 80 75 69 65 64 64 63 64 67 66 64 65 65 63 62 61 61 62 56 40 30 37 49 52 51 54 55 53 52 53 53 54 59 68 75 80 86 89 90
90 87 84 78 80 83 79 75 78 80 73 65 62 60 58 57 56 52 49 49 47 42 40 41 40 39 44 51 55 56 56 58 60 62 62 61 61 61 62 61 62 66 66 68 77 79 71 65 65 64 64 65 63 63 67 69 66 63 62 62 60 59 57 48 35 28 32 38 42 46 51 52 48 49 51 51 51 53 58 64 70 77 83 85 84
81 80 77 68 65 68 68 63 63 63 58 53 53 54 51 54 61 61 53 48 47 44 42 44 45 46 50 54 55 55 56 60 63 65 65 65 64 65 67 67 69 69 66 67 76 78 70 65 67 67 67 69 66 63 66 71 70 66 63 61 59 56 48 36 32 39 44 44 44 47 47 43 43 48 50 49 50 54 55 59 66 73 80 84 83
61 59 60 61 62 65 67 66 65 63 58 52 52 52 49 49 59 66 62 59 60 56 50 50 53 54 55 56 55 56 60 64 66 68 69 69 69 71 71 71 72 72 67 66 73 76 71 68 69 70 73 74 71 69 70 71 70 67 64 60 55 47 39 39 44 41 32 34 45 47 38 38 46 50 47 46 51 54 53 56 63 71 77 84 86
58 55 58 65 70 72 73 71 68 62 56 50 48 51 51 50 53 57 58 65 75 71 59 54 55 53 51 53 53 54 59 65 69 71 71 72 73 73 72 72 74 77 76 75 77 78 76 73 72 73 74 72 71 72 73 72 70 68 65 60 49 36 34 43 44 27 14 27 47 47 39 42 49 47 44 46 50 53 52 52 59 69 75 80 86
64 63 64 67 69 70 66 61 56 52 51 50 51 53 53 50 52 59 67 73 76 69 56 51 52 53 52 54 55 56 59 64 69 73 75 77 76 72 70 73 75 74 75 76 76 77 77 77 76 76 73 70 71 74 74 72 70 68 65 59 43 24 18 25 22 8 7 28 48 49 44 46 47 44 45 49 49 50 49 50 56 66 72 76 82
59 57 54 52 54 56 54 51 52 53 53 56 59 59 55 49 51 65 74 69 60 57 57 56 56 59 59 57 58 60 62 65 71 75 76 75 72 69 72 78 77 74 73 74 75 78 78 74 73 73 71 69 72 75 75 72 68 64 61 55 38 17 11 16 19 16 20 35 48 48 44 45 45 45 47 50 49 47 49 51 55 60 66 73 79
54 52 52 51 55 58 57 58 62 64 64 67 67 63 59 57 60 69 73 66 59 64 70 70 71 73 68 59 59 64 67 71 75 74 71 69 68 70 76 80 77 74 74 73 73 77 77 73 71 71 71 73 77 79 76 71 67 64 58 47 36 33 34 36 37 37 39 42 44 43 43 45 44 44 47 49 46 46 52 55 54 54 61 69 76
57 59 60 60 62 63 63 66 68 67 67 71 69 64 64 68 71 72 73 72 72 74 76 77 81 80 68 58 61 70 75 78 80 76 72 72 73 76 80 79 75 75 76 74 72 73 72 69 67 68 72 80 83 80 76 69 65 61 49 31 27 39 46 41 37 38 37 36 37 40 45 46 42 41 46 47 44 47 54 56 52 51 57 64 73
60 61 59 57 62 66 69 71 70 66 65 67 70 72 74 76 76 76 76 76 77 78 79 82 81 73 62 61 71 78 78 80 84 83 80 80 80 81 83 79 75 76 77 72 71 72 70 68 69 71 76 83 82 75 72 66 57 48 35 20 20 34 42 42 41 33 23 25 33 39 41 40 35 37 44 47 45 48 53 53 51 50 53 61 73
60 62 57 53 56 61 64 64 64 66 66 64 67 75 80 78 77 78 78 78 78 80 82 81 74 65 63 69 77 79 77 77 82 84 85 84 82 83 84 80 77 80 79 73 73 75 74 75 78 79 79 80 77 71 68 60 47 35 27 23 26 31 36 43 45 30 18 25 33 30 27 29 32 37 46 49 48 49 52 52 52 52 54 62 73
61 64 58 53 54 55 55 53 53 55 55 51 54 66 74 73 71 72 76 79 81 82 82 80 73 68 69 75 78 78 77 76 77 80 84 85 84 84 84 81 79 82 82 78 77 79 80 80 82 80 78 77 73 67 61 50 34 23 23 27 27 22 23 35 41 31 22 24 21 16 21 32 38 43 47 48 47 50 51 52 52 52 55 64 71
60 63 58 55 53 51 49 48 46 45 44 43 49 59 65 66 68 74 80 83 82 79 81 84 81 76 74 74 75 76 76 74 75 78 81 83 84 85 85 83 82 83 80 75 73 76 79 81 80 77 77 75 66 54 44 32 19 12 16 22 23 19 19 24 26 20 15 12 8 13 28 39 41 43 44 44 47 51 50 50 52 53 54 60 67
63 64 60 56 53 48 45 45 45 44 45 47 51 59 65 70 77 83 85 84 82 81 81 84 85 82 79 76 74 74 74 74 76 78 77 77 81 86 86 84 83 80 74 71 72 72 73 77 78 77 76 73 62 46 31 19 11 9 11 14 18 21 20 15 11 9 9 6 6 15 28 35 41 44 41 40 47 52 50 49 53 55 53 54 57
67 62 55 52 50 48 48 50 51 52 56 60 63 68 75 81 86 88 86 84 86 88 87 85 83 83 83 82 79 78 75 73 73 75 74 74 79 84 84 83 83 78 72 73 75 70 67 72 77 77 76 72 61 44 25 11 7 10 11 9 11 13 12 8 7 9 8 6 8 13 19 28 40 45 40 38 47 53 52 51 52 53 53 51 50
62 56 52 52 51 50 53 60 64 66 71 76 79 81 84 86 87 87 85 83 83 84 86 85 84 83 83 81 79 78 77 75 73 73 73 74 78 79 76 77 79 76 71 72 72 68 68 73 76 76 77 73 59 40 22 9 6 9 10 9 9 9 8 8 10 10 9 9 10 9 11 24 41 48 45 45 50 53 52 52 51 51 52 49 46
61 59 58 59 59 59 65 76 80 78 79 83 84 83 83 83 81 80 80 79 77 77 78 78 78 79 79 78 77 77 77 78 77 76 76 79 81 78 74 74 75 72 70 71 70 68 73 79 78 78 78 70 52 35 21 10 6 8 10 9 9 9 9 9 10 9 9 11 11 9 16 31 44 48 46 48 52 53 50 49 50 52 51 48 45
69 69 68 69 69 69 74 81 82 80 80 84 82 78 77 77 74 73 74 74 72 73 73 71 71 74 75 76 76 77 78 79 79 78 79 82 81 76 74 75 73 68 70 75 74 70 74 79 80 80 78 67 49 34 21 11 9 12 12 10 10 10 9 9 9 8 9 11 11 17 31 43 47 48 49 52 55 54 49 47 50 53 49 45 44
72 72 71 69 69 71 73 75 76 76 77 77 75 72 73 72 68 67 67 66 65 68 70 68 67 68 69 70 72 74 76 77 77 76 78 81 77 72 73 76 72 65 69 77 78 74 76 80 80 78 76 66 49 34 23 17 17 17 14 11 11 10 9 9 7 6 11 13 11 17 35 46 45 46 51 53 53 52 48 43 47 52 48 43 43
66 66 66 65 66 69 70 70 70 71 71 70 68 67 67 64 60 57 57 56 58 61 64 64 64 65 66 68 69 70 73 74 73 73 76 79 74 70 73 77 73 66 67 74 77 75 77 80 78 75 73 65 48 33 27 26 23 17 13 14 14 10 8 9 7 9 15 16 9 15 38 54 53 51 53 47 41 45 50 47 45 49 47 42 42
Wind_Speed
39 41 40 40 40 39 37 34 31 30 29 28 27 25 23 21 18 16 14 12 12 11 10 10 9 7 8 9 10 11 11 11 11 11 11 12 11 11 11 12 12 12 11 10 11 11 11 12 12 13 15 14 11 11 11 12 13 14 14 14 15 15 15 17 20 21 19 17 16 15 15 17 19 18 18 17 16 18 21 23 23 23 25 26 25
40 43 41 41 42 41 40 39 35 32 30 28 27 25 24 23 19 17 15 12 11 10 9 9 8 8 9 10 11 12 12 12 12 12 13 13 13 12 12 12 12 11 11 11 11 11 11 12 12 13 14 14 11 11 12 12 13 14 13 14 15 15 14 15 19 20 19 20 18 17 16 16 18 19 20 22 21 21 21 21 21 20 21 23 24
37 43 43 43 43 42 42 42 37 32 32 31 28 24 22 21 19 19 16 11 7 8 9 8 8 9 11 12 13 13 14 14 14 15 15 15 15 14 14 13 13 12 12 11 11 11 11 13 14 13 13 13 12 12 13 13 13 13 14 14 15 16 14 15 18 19 19 20 20 19 18 18 19 19 20 21 23 24 23 20 19 20 21 22 23
34 41 47 46 44 44 45 43 39 35 34 31 26 24 21 19 20 20 16 8 5 9 11 11 12 14 17 18 17 17 17 16 16 17 17 18 18 17 15 14 13 13 13 12 11 11 12 14 14 13 12 13 14 14 15 16 15 14 14 14 15 17 15 14 17 19 19 20 20 18 20 22 22 21 21 22 23 24 23 22 22 23 25 24 23
33 37 43 44 43 44 43 41 37 35 34 31 28 26 25 23 22 21 19 15 13 17 21 21 22 22 23 22 22 23 21 19 18 18 18 19 19 18 16 14 14 14 14 13 13 13 14 16 15 14 14 15 16 16 16 16 16 16 15 14 15 17 17 16 17 18 19 21 21 20 21 24 23 22 22 22 23 25 24 23 22 22 23 24 24
33 32 35 38 39 37 34 33 32 30 30 31 31 30 30 29 28 27 27 26 27 30 31 30 29 27 24 23 24 25 24 21 20 19 19 19 20 18 16 15 14 16 15 14 14 14 15 16 16 15 16 17 18 18 18 17 17 18 17 14 14 16 17 17 17 18 18 19 20 20 22 24 23 22 22 21 24 28 27 25 23 21 21 22 25
30 33 38 39 37 36 35 37 38 34 32 33 34 34 33 32 32 36 38 35 37 42 41 37 36 34 31 30 29 27 25 22 21 21 19 19 20 19 17 15 15 16 16 15 15 15 16 17 17 17 18 19 20 21 20 17 16 18 18 16 15 16 18 18 17 16 16 17 19 20 23 26 25 23 23 23 24 26 26 25 24 24 22 21 24
32 38 41 35 32 37 39 39 38 37 35 35 34 33 33 31 31 36 41 40 41 46 45 41 40 40 39 39 38 33 28 25 23 22 20 20 20 19 18 17 16 16 16 16 16 16 17 17 17 17 18 20 21 20 19 18 18 19 20 19 18 18 20 21 18 15 16 19 21 21 22 25 26 23 23 23 23 24 24 24 26 27 25 23 23
36 36 34 30 29 32 32 31 31 32 32 33 32 33 36 36 35 39 42 42 41 43 42 40 41 43 43 42 40 34 29 26 25 23 22 20 20 19 19 18 16 16 16 17 17 17 17 18 19 19 19 21 22 20 20 21 22 23 21 20 19 19 21 23 20 17 18 20 22 22 21 22 24 24 24 24 23 24 25 26 29 30 29 28 27
30 26 24 30 32 30 29 29 29 28 26 27 36 43 45 45 46 48 47 44 41 41 42 42 42 45 45 39 34 30 27 26 25 23 22 20 19 19 19 17 17 17 17 18 18 18 19 20 19 19 20 20 20 21 23 24 25 24 22 20 20 20 21 24 24 21 20 21 22 23 23 23 24 26 27 26 25 25 26 29 31 31 32 33 32
24 19 19 26 30 30 31 33 32 31 28 26 34 43 48 50 52 53 52 49 44 41 42 44 43 46 46 36 29 29 29 27 25 24 24 21 19 19 19 18 18 18 18 18 18 19 22 23 21 21 22 21 22 26 27 25 24 23 21 21 22 23 22 24 25 24 23 23 25 26 27 27 27 27 27 27 26 26 28 30 31 30 30 32 32
19 18 21 25 28 28 29 30 31 32 30 28 29 35 43 50 53 53 52 49 46 42 44 46 45 47 46 37 30 29 29 27 24 24 24 23 20 20 21 20 20 20 21 21 20 21 23 25 25 24 25 25 27 29 26 24 24 22 20 21 23 24 23 23 25 26 24 25 27 29 29 29 28 28 28 28 27 28 30 31 31 29 28 30 33
17 20 24 26 26 26 25 25 26 26 26 25 25 29 37 44 49 49 45 43 44 45 48 49 46 46 45 38 32 30 27 25 23 22 23 23 22 22 22 21 20 22 22 22 21 23 25 27 26 26 26 25 25 25 25 25 24 21 20 21 23 23 23 23 25 27 27 28 30 31 30 29 29 29 27 27 28 30 30 30 30 29 28 31 34
17 21 24 21 21 22 21 21 21 21 21 20 22 27 32 37 42 44 43 43 45 47 49 49 47 47 45 39 33 29 26 24 23 23 24 25 24 23 22 20 21 22 23 22 23 25 25 25 25 26 26 24 22 23 23 22 20 18 19 21 22 21 22 23 24 24 25 27 28 26 25 26 27 29 28 27 30 31 30 29 29 29 31 33 34
17 18 19 16 17 19 20 20 19 18 17 17 20 23 25 28 33 39 42 43 45 46 48 49 47 43 40 37 33 29 26 26 26 25 26 28 28 26 23 22 22 23 24 25 26 26 26 27 28 27 27 27 26 25 22 19 18 20 22 22 21 21 21 22 22 22 23 25 25 24 24 26 28 31 31 31 32 32 30 29 28 28 29 30 30
15 13 13 13 16 19 20 19 17 15 16 17 19 20 20 23 27 33 38 40 42 44 45 47 45 39 35 34 33 30 28 28 27 25 26 28 29 27 24 24 25 27 28 28 27 27 28 29 28 27 29 29 26 22 19 18 19 20 20 20 21 21 21 22 24 25 27 28 30 31 30 30 30 30 30 30 29 28 26 24 23 24 24 25 25
14 13 13 13 15 18 18 15 14 15 16 17 18 18 19 20 22 26 31 33 36 38 40 43 41 35 33 33 32 30 31 30 27 25 25 27 28 28 28 27 26 25 25 25 25 26 28 29 29 28 26 23 19 17 17 17 18 18 19 19 20 21 21 22 24 27 28 29 32 33 31 29 28 26 26 25 22 20 19 20 20 20 23 25 25
14 13 13 12 12 14 14 13 14 17 17 17 17 18 18 19 19 21 24 27 30 32 34 33 30 27 28 30 29 28 28 27 24 24 26 29 30 30 30 28 27 24 21 22 25 28 30 31 31 28 21 17 17 17 17 16 16 17 17 18 20 21 21 21 21 22 24 25 27 28 27 26 26 24 23 21 17 18 21 23 20 18 22 26 27
15 14 12 12 12 12 13 14 15 17 17 17 17 17 17 17 18 21 24 27 28 27 26 24 21 20 22 25 28 27 25 23 23 24 27 31 32 30 28 26 27 27 23 21 24 28 29 26 23 20 17 16 17 17 16 15 15 16 17 17 18 18 19 20 19 20 24 25 24 22 20 19 19 19 19 20 19 20 23 24 20 19 23 27 29
15 15 15 15 15 15 15 17 17 18 18 18 17 17 17 17 18 21 23 22 21 20 20 19 19 18 17 20 26 27 23 22 24 24 25 27 27 25 23 19 18 19 20 20 21 24 24 20 16 14 15 16 17 16 15 15 15 18 19 16 15 18 20 22 23 25 27 27 23 19 16 15 16 16 18 20 20 21 22 22 21 22 24 28 29
15 15 16 17 18 18 17 18 19 19 19 18 17 18 19 18 18 19 18 16 16 17 17 17 18 17 15 17 20 21 20 20 21 20 20 20 20 18 18 17 15 16 18 19 19 18 17 15 14 14 15 16 16 16 16 17 17 19 19 17 17 20 21 22 24 24 22 19 17 15 14 15 17 17 19 21 21 21 21 20 21 22 24 27 28
15 16 16 18 19 19 19 20 21 20 19 19 20 21 22 21 20 18 16 14 15 16 16 16 17 17 17 18 18 17 18 18 18 18 18 18 16 14 15 14 13 14 16 16 15 14 13 12 14 16 16 17 18 17 18 18 17 17 18 18 19 20 21 21 21 18 14 13 13 13 14 16 18 19 20 20 19 19 20 22 24 26 28 29 29
16 17 18 19 19 19 19 21 22 21 21 21 23 24 24 23 21 20 17 15 15 16 15 16 17 16 17 19 18 16 17 19 19 18 17 15 13 12 12 12 11 12 11 9 8 9 12 14 16 18 18 18 19 19 18 17 16 16 17 17 18 19 20 19 15 12 11 12 12 12 13 16 18 19 19 18 19 22 25 28 29 29 29 29 28
18 18 18 19 19 19 19 20 20 21 21 23 24 25 25 24 22 20 17 16 16 15 15 15 15 15 16 17 16 16 17 18 16 14 13 12 11 11 12 11 10 9 8 7 8 10 14 17 19 19 19 19 19 17 17 16 16 16 16 16 17 18 17 13 11 11 12 11 11 13 15 16 17 17 19 21 25 27 28 27 26 25 25 25 26
19 19 19 19 19 19 20 20 20 20 21 24 26 26 25 23 20 17 16 16 16 14 14 15 15 15 16 17 19 19 17 15 13 11 10 10 11 12 12 10 8 9 10 12 14 15 16 17 18 18 18 18 17 17 17 16 15 14 15 15 15 14 11 9 9 11 11 12 12 14 15 15 16 19 23 26 27 25 23 22 22 23 23 23 25
18 18 18 18 19 19 19 20 21 21 23 26 28 27 24 20 16 14 13 15 16 15 15 15 15 16 17 18 21 20 17 13 12 11 10 10 11 11 11 9 9 11 13 14 16 16 16 16 16 16 16 16 15 15 15 15 14 14 15 15 13 10 9 10 10 11 11 12 13 13 14 17 19 22 24 24 22 19 18 19 21 22 21 21 24
18 17 16 16 17 17 17 18 18 19 22 26 25 22 19 15 14 13 14 15 15 16 16 16 16 17 17 17 18 17 14 11 10 9 9 10 11 10 10 10 10 11 13 14 15 15 15 15 15 16 17 16 14 13 12 13 14 13 12 12 10 9 10 12 12 13 14 14 14 15 18 20 21 21 20 18 17 17 17 18 19 20 20 20 22
17 16 15 14 14 15 15 17 17 17 21 23 21 18 15 13 13 13 13 13 14 15 16 16 15 15 15 15 14 14 12 10 10 10 10 11 11 10 10 10 11 10 10 11 13 14 15 16 15 14 13 12 11 10 11 11 11 10 9 8 9 11 12 13 13 14 15 15 17 19 20 19 18 17 16 16 16 16 16 17 18 18 17 18 20
15 15 14 14 14 14 15 15 16 18 21 22 20 17 15 12 13 13 13 12 13 14 15 14 12 12 12 12 12 12 12 12 12 12 13 13 12 12 11 10 10 10 10 11 12 12 12 12 11 9 8 9 9 10 10 10 9 8 9 11 11 10 10 11 11 12 13 17 19 19 17 16 15 15 15 16 16 16 16 17 17 16 17 18 19
15 15 14 13 14 14 14 16 17 18 18 17 16 15 14 12 13 14 14 14 13 13 14 15 14 12 10 10 12 12 12 13 13 13 13 13 13 13 12 10 11 12 12 12 12 10 10 9 8 8 9 9 10 9 9 8 8 7 8 11 11 9 10 10 10 11 15 18 17 15 14 14 15 15 15 15 16 17 16 16 16 16 18 18 17
16 16 14 14 14 15 15 16 16 15 14 12 12 13 13 13 13 14 14 13 11 12 15 17 15 13 11 10 12 13 13 13 12 13 14 14 14 13 12 11 11 12 12 12 11 10 9 9 9 9 9 9 9 8 7 7 7 7 7 8 9 9 10 10 11 15 17 15 13 12 13 13 14 14 15 16 17 17 16 16 15 16 17 18 16
18 17 16 16 16 16 16 15 13 12 13 12 11 11 11 10 11 11 11 12 12 14 15 15 13 13 13 13 13 13 12 12 13 14 15 15 14 13 11 11 12 12 12 12 10 8 8 8 8 9 9 9 10 10 9 7 7 7 8 8 9 9 9 11 15 17 15 11 11 11 12 13 14 15 15 15 16 16 16 15 15 16 19 19 19
18 17 17 16 16 15 14 13 11 11 11 9 8 9 8 8 9 10 10 11 14 16 16 14 12 12 13 14 13 12 12 13 14 15 15 15 14 13 12 12 12 12 11 10 8 7 8 9 8 8 9 9 10 11 11 9 8 7 8 8 8 9 11 14 15 13 10 10 11 11 11 13 13 14 14 15 15 15 16 15 15 17 20 22 22
17 16 16 16 17 15 13 13 12 11 10 10 9 8 8 9 10 10 9 10 12 15 15 14 12 11 11 12 13 13 13 14 14 15 15 15 14 14 13 12 11 11 10 8 7 6 6 8 8 9 10 10 10 11 12 11 9 8 8 8 9 10 12 13 11 9 9 10 10 10 11 13 13 13 14 14 15 15 15 15 16 18 21 22 23
17 17 16 15 15 14 12 12 11 10 10 11 10 8 9 12 13 13 11 9 9 11 12 10 8 7 7 9 11 12 12 13 13 14 15 15 15 14 12 10 9 8 8 7 6 6 7 8 9 10 11 11 11 11 12 11 8 8 8 9 9 10 10 8 7 8 9 8 8 10 11 12 12 13 14 14 15 15 15 15 16 17 19 21 22
16 16 15 14 12 11 11 12 12 12 12 10 9 11 12 13 12 13 12 9 8 9 8 6 5 6 8 10 11 13 13 13 13 14 15 15 15 13 10 8 6 5 6 6 6 6 8 9 9 10 12 11 11 11 11 10 8 9 10 10 9 9 7 6 7 8 8 7 8 10 11 11 12 13 13 14 14 14 14 16 16 17 18 19 22
14 13 13 13 12 11 13 16 16 14 12 12 12 12 10 8 7 8 8 9 10 9 7 6 7 9 11 11 12 13 14 13 14 15 15 15 15 12 7 4 6 7 7 7 7 8 8 8 9 10 11 10 11 11 11 9 9 10 11 11 10 7 6 6 6 7 7 7 8 10 11 11 12 13 13 14 14 14 15 15 16 17 18 19 20
11 11 12 13 12 12 14 16 15 13 12 11 11 11 10 10 10 9 8 9 9 8 7 8 9 10 11 12 12 13 13 12 12 13 12 13 13 10 4 5 7 8 7 8 8 8 8 9 10 10 10 10 11 12 10 9 9 9 10 10 8 7 6 5 6 7 7 7 8 10 10 11 12 13 13 14 14 14 15 15 15 17 18 18 19
11 12 13 13 12 11 11 11 9 8 8 8 9 11 11 11 10 8 7 8 8 7 7 8 8 9 10 12 12 12 12 10 10 10 10 10 11 8 6 6 7 7 7 8 8 8 8 8 10 10 10 11 12 11 10 10 10 11 11 8 6 5 5 5 5 6 7 7 8 9 10 11 12 13 13 13 13 14 14 15 15 17 17 17 18
12 13 14 14 12 12 12 12 11 10 10 9 9 10 9 8 7 7 6 6 7 7 7 6 7 9 10 11 10 10 9 8 8 9 9 9 9 8 7 7 7 8 8 7 8 8 9 9 10 11 11 12 12 12 11 11 11 10 9 6 5 5 5 5 5 6 6 7 8 9 9 11 12 13 13 13 13 14 14 14 15 16 16 16 17
14 15 15 14 14 14 14 13 12 11 11 10 9 7 6 6 6 6 6 6 6 7 6 6 7 9 10 9 9 10 9 7 7 8 9 9 9 9 8 8 8 8 8 8 9 9 9 9 11 11 11 12 11 10 11 10 9 7 7 6 5 5 5 5 6 6 6 6 7 8 9 10 11 12 13 13 14 14 13 14 14 15 16 16 16
17 16 14 13 13 13 13 12 12 11 10 9 6 5 7 9 8 7 6 6 6 6 6 7 9 10 10 9 11 11 10 8 9 10 10 10 10 10 9 9 9 9 9 9 10 10 10 10 11 11 11 11 10 9 9 9 8 7 6 6 6 5 4 5 6 7 7 7 8 8 9 10 11 12 12 13 14 13 13 13 14 14 15 15 15
18 16 13 11 11 10 9 9 9 8 7 7 5 6 8 9 9 8 7 6 6 6 7 9 11 11 11 11 12 12 11 10 11 11 11 11 11 11 10 10 10 10 10 10 10 11 10 10 10 10 10 10 10 9 8 8 8 7 7 6 6 6 5 5 6 8 8 8 9 9 10 10 11 11 12 13 13 13 13 13 14 14 14 15 15
17 15 13 11 9 7 6 6 6 6 6 7 6 7 8 9 9 8 7 8 8 8 7 8 7 7 9 11 12 12 11 11 11 11 11 12 13 13 12 12 13 14 14 13 11 11 10 9 9 10 10 10 11 10 9 9 9 8 8 7 7 6 6 6 7 8 9 9 10 10 9 10 10 10 11 12 12 12 13 13 13 14 14 14 14
13 12 10 10 10 9 8 7 7 7 7 7 7 7 7 9 10 9 8 8 9 9 9 8 7 6 7 8 9 10 11 11 11 11 11 13 14 14 14 14 15 15 14 12 11 11 10 9 9 10 10 10 10 10 9 9 9 9 9 9 7 6 7 8 9 9 10 10 10 9 8 9 9 9 10 11 11 12 12 12 13 13 14 14 14
10 10 10 10 10 9 7 6 6 6 6 6 7 7 8 9 9 9 8 9 9 8 8 7 6 7 7 7 8 9 10 10 11 11 11 13 14 13 12 12 13 12 10 10 11 12 10 9 9 10 9 9 10 11 9 9 9 9 9 9 8 8 9 9 9 10 10 11 11 10 9 8 8 9 11 11 11 11 12 12 12 12 13 13 14
9 11 10 8 6 6 7 6 5 5 5 6 6 7 8 8 8 8 9 9 8 7 7 6 6 6 7 8 9 10 10 10 11 11 12 14 14 12 10 11 11 10 10 10 10 10 10 10 10 10 9 10 11 10 9 9 10 10 9 9 9 9 9 9 9 10 11 11 11 11 9 7 7 8 10 10 10 10 11 11 11 11 12 12 13
7 8 8 7 6 7 7 6 6 5 5 6 7 7 7 8 8 7 7 7 7 6 6 6 7 7 8 8 10 10 11 11 12 12 13 14 13 11 11 12 12 10 10 10 10 9 9 10 10 10 10 11 11 10 10 10 10 10 10 10 10 9 9 9 10 11 11 11 11 10 8 7 7 8 8 9 9 10 11 11 10 11 11 12 12
6 6 6 5 5 6 6 6 6 6 6 7 7 7 7 7 7 6 6 5 5 5 6 6 7 7 8 9 10 10 11 12 12 12 12 13 12 11 12 13 13 11 10 10 10 9 10 11 11 10 10 10 10 10 10 10 10 10 10 10 9 9 9 9 10 11 11 11 10 8 6 6 7 7 7 9 9 9 10 10 9 10 10 11 11
4 4 4 5 5 5 5 5 6 6 7 7 7 7 7 7 6 6 6 5 6 7 8 8 9 9 10 11 11 11 11 12 12 11 12 13 12 12 13 14 13 11 10 10 10 10 10 11 12 11 10 10 10 10 10 10 10 10 10 10 9 9 9 10 10 11 11 11 9 7 5 5 6 6 6 7 8 8 9 9 9 9 10 10 10
3 3 3 4 4 4 4 5 6 6 7 7 8 8 8 7 7 7 7 8 8 8 9 9 10 12 13 14 14 14 14 13 13 12 13 14 14 14 14 14 13 11 10 10 10 10 10 11 12 11 11 11 11 10 9 10 11 11 10 9 9 9 9 10 10 11 10 10 9 6 4 5 6 5 6 6 6 6 7 9 9 9 9 9 9
Wind_Direction
225 228 229 230 232 233 234 232 230 230 230 230 229 231 234 231 232 242 250 259 267 265 260 258 261 262 252 246 247 251 254 248 243 246 250 253 255 255 254 251 249 250 250 249 251 253 259 263 263 261 263 265 267 270 273 274 276 279 283 283 279 275 276 283 288 290 295 301 298 295 300 302 302 301 300 302 301 298 301 303 305 307 305 306 307
224 228 229 230 232 233 235 235 233 232 229 227 227 231 233 230 233 246 245 248 268 273 269 270 273 276 272 266 266 269 269 263 255 254 256 256 255 256 256 254 249 247 247 248 249 252 256 260 261 259 264 266 260 260 266 269 273 279 282 282 282 281 274 275 288 292 293 300 301 297 298 298 300 305 305 304 302 299 298 298 301 302 300 301 301
222 229 229 229 231 232 234 236 234 231 229 227 225 226 230 230 235 246 242 235 263 283 278 279 282 281 279 275 274 272 269 266 263 259 257 255 255 256 253 250 248 245 245 246 248 254 255 256 257 256 260 263 258 260 264 266 269 274 279 282 284 289 283 274 286 293 289 290 293 295 298 296 294 298 299 299 301 302 300 297 296 298 298 294 292
218 228 231 231 232 233 235 235 232 230 227 223 219 216 222 231 239 249 253 245 269 293 289 281 274 269 267 265 264 263 261 261 261 260 259 258 259 259 253 248 248 245 243 243 245 250 251 253 256 255 255 256 258 263 267 270 273 274 278 283 285 290 291 281 283 289 289 288 287 287 292 295 294 296 297 298 298 297 298 299 299 300 299 294 289
213 225 233 234 235 237 236 234 232 230 225 219 213 212 214 223 236 251 259 257 265 278 276 271 266 260 258 258 257 254 253 254 256 258 260 262 261 259 252 247 246 245 243 245 247 247 248 251 255 256 255 256 260 265 270 276 281 281 280 285 287 290 292 287 284 285 287 289 288 284 287 291 292 294 296 296 295 294 295 297 295 292 291 292 294
213 217 229 234 235 235 232 232 232 231 229 222 212 208 210 215 227 242 249 251 261 268 263 258 256 251 251 257 258 253 248 249 252 254 256 261 263 260 253 245 245 248 248 249 251 252 253 254 255 255 254 257 261 265 270 276 281 282 280 283 290 292 289 286 285 286 285 284 282 282 285 287 289 294 296 294 293 294 296 296 292 289 288 291 298
208 216 227 230 230 231 234 239 239 237 238 231 214 207 210 215 226 239 244 248 257 261 258 252 248 247 249 256 259 255 249 246 248 250 251 257 263 262 255 248 248 252 252 253 253 254 257 258 258 257 255 257 261 265 269 273 277 282 286 291 296 297 297 292 286 281 279 277 278 281 284 286 287 292 297 296 295 295 296 297 295 296 294 291 295
215 223 227 222 222 231 236 240 240 238 233 224 213 210 214 221 228 234 240 246 251 254 256 254 248 245 247 251 253 254 251 246 245 247 248 253 261 263 259 254 252 254 255 256 257 258 260 260 261 262 261 261 263 266 271 274 276 284 291 295 298 301 303 300 289 278 279 283 284 284 285 287 288 292 299 301 298 295 296 297 296 295 294 291 291
225 226 222 216 219 227 228 227 231 232 220 206 205 215 223 227 228 228 235 245 251 252 255 254 248 243 242 244 247 249 250 246 244 245 247 252 259 262 263 260 257 255 255 258 262 265 266 266 265 264 264 265 270 274 277 277 278 282 285 287 290 295 298 296 288 280 282 286 287 286 285 286 288 294 301 301 298 297 298 298 297 296 296 294 291
221 215 213 220 225 225 228 232 237 240 230 212 208 215 222 225 226 229 234 243 252 255 254 254 250 241 238 240 243 245 246 245 245 245 246 249 256 260 262 264 262 259 258 260 264 269 275 279 277 272 271 271 272 275 277 277 277 279 280 280 283 288 291 289 284 279 280 284 286 286 286 288 291 297 300 300 299 299 298 298 300 299 297 295 294
211 200 204 225 232 234 240 244 248 251 248 230 213 211 217 221 224 230 236 244 254 257 254 254 250 241 237 239 242 244 246 246 246 246 243 243 250 255 259 265 268 267 264 264 268 274 281 283 279 277 281 281 279 280 282 281 277 274 274 274 277 285 288 283 278 277 278 280 282 285 288 292 295 298 299 299 300 300 301 302 302 299 297 295 296
201 194 204 223 233 240 244 244 244 245 241 231 219 213 215 219 223 231 238 246 254 256 252 252 250 243 239 240 242 244 246 247 246 245 240 236 241 248 252 258 263 265 263 263 269 274 278 280 278 280 285 284 284 287 287 285 278 267 265 271 277 283 285 279 275 276 278 280 283 287 290 293 296 297 297 298 299 300 303 303 300 298 294 292 293
189 194 206 221 231 238 241 239 236 236 233 230 223 215 215 219 224 232 239 246 250 250 249 249 248 244 240 240 242 243 243 245 246 243 234 230 233 240 246 250 255 261 263 262 266 272 276 281 283 285 285 283 287 291 289 287 281 262 255 270 280 283 283 279 276 275 276 279 283 287 289 291 294 296 297 297 299 300 302 301 300 297 293 291 293
179 194 207 221 233 235 236 236 232 229 229 229 222 216 217 221 226 233 239 244 245 246 246 246 246 245 242 241 243 242 239 241 242 237 231 229 230 234 242 249 253 258 261 260 263 270 276 283 285 283 284 287 294 296 292 291 288 273 267 277 284 285 286 286 284 281 279 282 285 287 288 289 292 295 296 295 295 296 297 297 296 294 291 292 294
178 194 209 225 236 235 231 230 228 226 226 224 220 218 221 225 229 234 238 241 242 243 244 245 246 245 242 240 241 242 241 241 241 237 234 233 233 234 241 250 252 253 256 258 262 268 275 281 283 284 290 294 295 293 291 292 291 286 284 285 287 288 287 285 285 284 284 285 286 285 285 285 288 292 293 293 292 292 292 291 290 289 290 292 293
179 191 208 224 229 229 227 225 223 221 219 217 215 216 221 226 230 233 236 239 242 243 244 245 246 245 243 239 239 241 241 241 241 242 241 238 236 238 246 254 257 257 257 259 263 269 276 277 278 284 293 293 289 287 290 293 290 286 286 288 291 293 290 283 281 282 283 283 283 283 284 286 288 290 291 291 291 291 293 292 289 289 290 291 292
175 186 202 214 218 221 224 221 214 208 207 208 207 207 214 220 224 230 235 238 240 242 244 245 246 248 247 242 239 241 242 242 241 241 241 240 239 244 251 257 262 263 263 266 271 275 279 278 277 284 290 288 287 291 294 293 290 285 286 288 289 290 288 284 284 288 289 287 286 288 290 293 295 294 294 292 289 290 296 295 292 292 292 291 292
167 177 190 200 206 209 211 207 200 197 197 198 199 201 206 212 217 226 232 234 237 241 244 244 243 247 249 244 237 237 242 245 241 238 241 244 246 250 254 261 268 271 273 281 284 281 281 280 279 282 285 287 293 298 297 294 290 285 284 286 287 287 287 285 286 290 291 288 288 292 296 300 301 300 300 297 292 295 300 298 294 292 291 291 292
158 162 165 173 181 183 183 184 187 188 188 189 193 196 199 206 218 227 230 232 235 240 242 240 237 243 250 245 236 236 242 245 238 234 242 249 251 252 257 267 276 275 275 282 284 280 279 281 280 281 286 293 297 298 297 295 290 286 286 286 286 284 282 282 282 283 286 287 287 288 291 294 296 298 302 303 301 300 300 297 294 291 291 292 294
149 147 143 147 155 160 165 173 179 184 186 185 185 189 195 205 219 229 231 230 230 232 235 236 237 243 248 242 239 241 243 240 234 236 247 253 251 251 260 274 282 279 279 281 279 277 281 286 289 289 290 295 297 298 299 298 293 291 289 285 282 281 281 283 285 286 288 290 289 288 288 290 294 297 299 299 297 295 294 292 291 289 290 292 293
144 141 138 140 147 155 163 173 181 189 192 187 182 188 198 205 213 219 219 216 216 219 223 228 234 240 238 233 236 239 236 235 240 247 249 247 244 250 265 277 280 280 279 276 273 276 283 288 294 298 299 301 304 304 303 301 296 292 288 285 285 287 289 290 290 290 291 291 290 290 290 291 294 296 294 292 292 292 291 289 288 289 290 291 293
149 149 146 147 152 159 168 177 184 190 195 194 190 192 198 202 207 207 201 200 211 218 219 223 227 230 231 230 232 235 236 244 252 249 237 233 238 253 266 273 272 271 270 265 263 271 279 287 299 308 309 308 307 305 301 298 294 290 289 291 293 293 294 293 292 290 288 286 287 288 292 296 298 296 295 294 293 293 293 293 293 293 293 293 293
158 161 159 158 161 165 170 177 182 186 190 194 195 197 200 203 207 208 201 200 210 214 214 218 221 224 231 236 236 238 244 250 250 240 231 233 243 256 264 263 257 256 256 251 251 272 289 300 307 311 309 306 303 300 297 296 295 293 294 296 296 297 298 297 293 288 284 285 289 292 295 298 298 297 296 296 296 297 299 299 299 297 297 298 298
165 168 165 163 165 169 173 180 184 185 187 193 198 200 202 204 210 216 212 206 205 207 207 213 218 223 230 234 235 237 241 244 243 236 233 241 253 261 260 251 243 248 257 262 270 285 297 303 305 306 303 301 299 297 296 297 299 301 302 301 301 301 301 296 288 285 286 288 291 295 296 296 296 297 298 300 302 305 305 304 304 304 305 305 306
172 171 167 165 168 173 179 185 189 188 188 193 198 201 204 206 214 221 213 200 199 203 206 212 217 221 224 229 233 234 233 234 239 241 242 248 258 259 252 244 248 263 276 283 289 295 298 299 300 301 299 299 300 301 302 303 305 307 305 304 306 305 299 292 287 286 290 293 294 296 297 297 297 299 302 307 311 312 312 310 310 311 312 312 311
180 174 169 168 172 176 181 186 191 192 192 193 196 202 205 205 211 214 203 197 202 207 209 216 221 222 222 225 229 230 230 232 237 241 241 244 250 250 246 247 256 270 280 286 291 295 297 298 299 298 299 301 302 305 308 307 308 310 310 312 315 308 299 302 303 300 300 301 300 300 300 301 303 306 310 315 318 317 314 312 314 317 318 316 313
181 174 166 167 172 173 175 179 179 180 187 190 193 198 201 201 206 209 203 204 212 217 217 219 222 224 224 223 223 229 234 237 240 241 238 240 244 242 239 245 260 276 284 287 290 293 295 296 296 296 299 301 301 302 305 306 311 315 315 315 313 305 305 311 312 310 312 311 309 308 308 309 311 313 315 317 315 314 314 314 317 320 321 319 316
172 165 159 160 164 164 167 170 165 166 179 186 184 185 190 194 200 207 210 213 219 223 225 225 225 225 223 219 223 233 239 240 241 238 229 228 232 232 233 247 265 275 274 275 285 292 292 293 294 295 301 309 309 305 301 302 310 314 309 305 304 306 314 320 319 316 317 317 315 314 314 314 314 313 314 313 313 315 318 320 322 322 320 320 319
157 155 154 156 158 158 162 166 166 172 187 194 194 196 202 204 203 212 226 237 238 232 225 220 218 217 216 220 228 234 236 237 234 226 219 221 226 230 235 247 261 269 269 271 277 281 283 287 289 284 285 295 296 289 283 285 290 292 297 308 313 311 312 316 316 312 311 313 315 315 313 311 312 313 314 314 316 319 322 326 329 326 322 321 320
147 149 149 150 154 156 159 166 173 184 198 208 209 211 221 227 226 232 248 263 264 245 220 206 203 202 203 219 228 225 226 230 228 222 223 227 229 232 239 249 259 269 276 278 277 270 262 264 269 270 273 277 276 272 270 274 276 275 288 305 311 308 305 308 308 307 310 314 314 312 309 309 311 314 315 315 319 323 325 328 330 328 324 323 322
142 142 143 151 155 153 158 168 176 185 197 206 211 216 226 233 234 240 251 256 248 225 207 204 208 206 201 215 227 225 224 228 229 227 229 229 229 233 243 256 264 269 273 275 273 264 255 259 268 274 276 275 273 270 267 269 276 282 289 298 303 303 304 305 307 310 315 317 312 308 309 311 312 314 316 317 322 326 327 328 329 329 329 327 326
139 140 146 157 158 156 161 168 173 181 191 202 212 219 225 228 226 228 233 230 219 207 201 205 213 212 211 221 230 230 232 236 235 231 230 230 232 238 249 262 268 269 272 273 266 253 255 270 277 274 274 277 279 279 277 275 278 288 295 298 301 301 298 299 305 312 316 315 310 310 312 312 313 315 317 319 323 325 327 329 330 332 334 335 339
138 141 147 151 151 153 159 163 166 175 183 189 193 196 206 220 223 221 222 219 213 209 209 217 225 224 224 231 236 239 245 247 240 232 228 229 235 247 260 269 269 268 271 271 261 248 258 272 274 270 273 278 281 283 283 280 280 288 295 297 298 300 301 305 311 316 318 314 314 315 313 313 316 318 318 321 323 323 326 329 328 330 338 346 352
136 138 143 145 146 149 154 157 160 163 167 171 175 183 206 226 222 218 227 229 222 220 226 235 239 236 236 241 245 249 254 251 240 232 230 234 245 258 265 267 267 269 269 260 240 236 257 267 267 268 270 272 277 281 278 276 280 289 294 296 298 300 304 312 317 315 309 311 314 312 311 315 320 321 321 323 323 323 326 328 327 330 338 348 354
132 134 139 143 147 150 153 157 161 163 167 175 183 200 233 244 235 227 233 237 230 232 235 230 224 232 247 253 258 264 266 259 248 242 242 248 256 259 261 269 276 275 270 257 240 241 258 263 264 269 269 269 274 275 270 270 278 286 291 296 301 303 305 309 308 302 304 312 311 310 317 325 326 323 322 323 322 323 327 328 328 331 333 338 347
124 128 133 137 141 147 154 160 164 169 177 192 211 227 244 254 249 239 233 218 203 210 214 206 215 247 259 258 261 268 271 269 264 259 257 258 259 259 267 286 288 266 259 262 257 255 258 258 261 265 266 267 271 268 264 266 274 282 288 293 296 298 298 294 292 299 311 319 314 314 324 328 324 324 325 324 323 324 326 327 330 331 331 335 343
115 120 128 136 142 153 166 171 174 185 201 218 226 227 227 219 203 197 191 182 186 200 212 221 236 247 251 253 257 263 268 270 269 265 260 259 263 269 273 263 250 249 254 258 258 257 259 263 267 265 263 266 267 263 261 267 275 283 290 295 295 291 284 282 289 300 315 324 319 319 325 326 325 327 327 324 324 326 326 329 331 331 333 338 342
128 131 140 151 158 166 178 185 194 210 221 220 214 209 202 189 178 171 170 183 200 213 223 232 238 243 251 259 262 262 264 265 264 261 258 260 270 276 253 214 236 254 256 254 257 257 257 263 267 263 262 265 263 257 259 269 276 280 287 293 294 290 285 292 302 310 322 327 320 319 324 326 326 328 327 325 326 326 326 331 333 331 333 339 339
131 134 140 149 156 164 173 179 186 195 199 196 193 192 188 181 175 171 179 200 213 215 222 233 232 232 250 266 267 259 257 258 257 257 257 258 261 256 227 220 244 254 249 254 262 261 258 263 264 260 260 259 253 251 259 270 275 278 281 281 278 276 282 292 299 304 314 317 314 319 327 327 326 330 330 326 326 327 329 332 334 333 334 336 336
130 136 140 144 146 148 149 144 138 139 146 153 162 169 170 167 171 180 193 206 214 217 225 227 216 223 252 270 262 245 241 243 246 249 248 243 238 230 221 228 243 247 248 257 261 258 260 264 262 258 257 252 247 252 265 272 275 277 277 267 251 253 265 277 285 295 305 310 317 325 326 324 327 331 329 327 330 333 333 332 333 336 335 333 335
146 146 144 142 139 136 136 135 133 135 143 148 152 160 171 176 183 193 200 209 219 221 218 211 217 241 262 260 238 233 240 236 224 221 221 221 220 217 219 230 239 244 250 258 258 257 258 259 256 251 246 241 244 255 266 271 271 268 262 255 247 250 262 276 284 293 304 312 320 324 321 323 331 333 330 332 335 335 333 333 335 338 338 336 338
159 153 148 145 142 139 142 144 141 139 147 156 164 183 197 200 209 219 222 221 217 206 203 219 238 253 257 243 235 245 253 240 221 215 214 217 220 220 224 234 242 246 250 254 254 252 250 248 246 241 234 235 244 253 261 265 265 255 246 244 243 244 255 269 278 292 308 314 316 320 324 331 336 333 329 332 334 333 334 337 339 341 342 343 344
166 160 154 152 150 150 156 162 159 155 162 173 189 206 213 224 243 253 242 225 212 204 218 240 249 252 246 239 243 254 257 243 231 225 221 223 225 225 227 233 239 245 252 254 247 240 238 238 237 234 231 236 244 248 254 259 254 241 233 234 239 245 253 262 273 288 302 306 310 321 329 333 333 330 327 329 333 336 337 339 342 344 345 347 349
173 170 167 168 171 174 176 180 186 193 195 198 212 227 233 243 252 246 230 223 222 221 226 234 240 246 246 241 242 251 257 252 242 233 228 229 229 229 234 243 249 256 262 259 248 240 237 235 232 230 232 239 248 255 259 257 246 233 227 230 236 247 257 264 272 284 294 302 311 321 329 329 328 328 327 329 335 338 339 340 344 346 346 348 351
176 176 175 182 191 193 193 202 217 222 218 221 235 244 242 237 232 222 218 223 226 224 220 216 215 228 241 241 242 249 256 255 245 237 236 239 238 237 244 251 257 262 261 252 244 245 243 231 226 231 234 242 256 265 264 253 240 230 227 229 233 245 258 266 276 285 292 301 309 315 321 326 327 325 325 331 337 338 338 341 345 346 347 349 350
198 191 183 183 188 193 205 230 240 233 227 233 240 239 231 224 218 213 214 217 217 216 217 220 221 224 230 236 242 248 253 251 243 239 242 243 240 238 241 245 248 251 246 235 238 251 248 228 219 226 231 240 257 266 263 251 239 231 231 233 236 246 259 269 278 286 290 296 302 307 313 324 328 324 326 334 340 337 337 342 346 346 349 351 349
181 185 189 197 215 242 257 258 242 226 222 220 216 213 212 210 207 208 212 213 213 215 222 230 234 232 230 233 238 244 250 248 243 241 243 240 233 229 232 234 234 234 233 232 240 251 247 230 221 222 226 238 255 263 257 246 239 235 235 240 243 250 263 273 278 284 288 291 293 297 306 319 326 324 325 332 338 338 339 343 345 347 350 352 350
204 226 241 254 264 258 243 223 211 213 212 202 198 201 204 205 207 212 215 219 223 228 233 238 241 242 243 244 244 247 250 249 245 242 238 231 225 222 226 230 229 226 228 236 244 246 238 226 220 219 226 241 256 260 251 242 239 237 237 242 247 255 267 276 281 285 289 288 288 293 305 317 320 320 323 330 337 341 342 343 345 349 352 353 353
229 244 249 236 216 208 196 184 187 195 192 189 193 197 198 200 205 208 212 222 232 236 242 249 252 252 255 255 252 249 247 246 246 242 231 222 221 223 224 226 228 226 223 230 239 242 234 225 219 219 227 241 252 254 246 240 237 237 239 244 252 261 271 281 287 289 289 286 281 284 300 312 312 317 326 330 334 338 340 343 349 353 353 353 355
172 178 183 184 191 195 186 177 184 190 189 190 194 195 193 199 207 214 222 238 250 253 255 261 263 261 261 260 258 254 251 247 245 240 226 218 221 225 224 225 229 231 223 222 230 237 234 226 221 220 224 235 245 247 241 235 234 236 241 248 258 267 277 286 291 293 291 283 272 266 283 304 309 317 326 327 327 334 341 347 354 356 354 354 358
165 173 180 183 186 187 185 185 191 195 195 196 200 203 206 213 224 234 241 249 257 261 264 264 263 261 260 258 256 255 252 247 243 237 228 222 223 226 224 223 229 235 231 225 228 230 225 219 219 220 223 234 244 242 233 231 234 238 244 255 265 273 283 291 295 295 291 279 263 256 278 304 309 316 322 317 315 331 346 351 354 357 356 357 1